Location: Apple Hill Campground
(44.2915°N, 71.6726°W)
Time: 06:12:31
(UTC+00:00)

BlueWalker 3 - Pass Details

Date: 13 October 2024
Orbit: 470 x 482 km, 53.2° (Epoch: 04 November)

Event Time Altitude Azimuth Distance (km) Brightness Sun altitude
Exits shadow 09:15:01 20° 340° (NNW) 1,139 3.6 -19.5°
Maximum altitude 09:15:34 21° 353° (N) 1,115 3.7 -19.4°
Drops below altitude 10° 09:18:26 10° 44° (NE) 1,636 5.3 -18.9°
Sets 09:20:59 0° 61° (ENE) 2,515 6.8 -18.4°
